Location: Township of South Roscoe
(37.9570°N, 100.1180°W)
Time: 14:53:17
(UTC+00:00)

Cosmos 1953 - Pass Details

Date: 17 October 2021
Orbit: 537 x 557 km, 82.5° (Epoch: 03 December)

Event Time Altitude Azimuth Distance (km) Brightness Sun altitude
Rises 12:07:35 0° 354° (N) 2,742 5.8 -9.4°
Reaches altitude 10° 12:09:47 10° 356° (N) 1,840 4.9 -8.9°
Maximum altitude 12:13:50 76° 83° (E) 572 2.6 -8.1°
Drops below altitude 10° 12:17:49 10° 169° (S) 1,813 5.2 -7.4°
Sets 12:19:58 0° 171° (S) 2,698 6.1 -6.9°
